[[{"header":{"parameterUnit":"m.s-1","parameterCategory":1,"la1":30.2991,"la2":30.254,"lo1":-89.0895,"lo2":-89.0444,"dy":0.0017,"dx":0.0017,"nx":28,"ny":28,"refTime":"2024-08-01T21:00:00:Z","depth":0,"parameterNumber":2,"parameterNumberName":"U-component_of_WINDS"},"data":[0,0,0,0,0,0,0,0,0,0,0,0,0,0,0,0,0,0,0,0,0,0,0,0,0,0,0,0,0,0,0,0,0,0,0,0,0,0,0,0,0,0,0,0,0,0,0,0,0,0,0,0,0,0,0,0,0,0,3.6575,3.6576,0,3.6694,3.6695,3.6696,3.6649,3.6646,3.6643,3.6641,3.6766,3.6772,3.6778,0,0,0,0,0,0,0,0,0,0,0,0,0,3.6309,3.6314,3.6574,3.6576,3.6577,3.6693,3.6695,3.6697,3.6649,3.6646,3.6642,3.6639,3.6764,3.6771,3.6779,0,0,0,0,0,0,0,0,0,0,0,0,0,3.6426,3.6316,3.6574,3.6568,3.6568,3.6693,3.6695,3.6697,3.665,3.6646,3.6642,3.6638,3.6762,3.6771,3.678,3.6919,0,0,3.6807,3.6811,0,0,0,0,0,0,0,0,3.642,3.6436,3.6567,3.6568,3.6569,3.6652,3.6648,3.6772,3.6651,3.6619,3.664,3.6636,3.6732,3.6743,3.6775,3.6925,3.693,3.6808,3.6813,3.6817,3.6819,0,0,0,0,0,0,0,3.6412,3.6431,3.6622,3.6569,3.657,3.656,3.6572,3.6671,3.6698,3.6622,3.6618,3.6633,3.6732,3.6766,3.6777,3.6932,3.6807,3.6815,3.6821,3.6824,3.7203,3.7207,0,0,0,0,0,0,3.6403,3.6424,3.6618,3.6625,3.6482,3.6568,3.6581,3.663,3.6697,3.6703,3.6636,3.663,3.6753,3.6767,3.6782,3.695,3.6817,3.6825,3.683,3.7198,3.7204,3.7209,0,0,0,0,0,0,3.6397,3.642,3.6613,3.6524,3.6548,3.6577,3.6632,3.6634,3.6669,3.6708,3.6713,3.6667,3.675,3.6769,3.6885,3.6953,3.6829,3.6837,3.7193,3.72,3.7207,3.7287,0,0,0,0,0,0,3.639,3.6419,3.6471,3.6525,3.6553,3.6714,3.6636,3.664,3.6684,3.6677,3.6737,3.6743,3.6748,3.6872,3.6894,3.6963,3.6844,3.7187,3.7196,3.7204,3.7278,3.7295,3.731,0,0,0,0,0,3.638,3.649,3.6474,3.6498,3.6619,3.6718,3.6733,3.6736,3.669,3.6743,3.6768,3.6741,3.6942,3.6884,3.6909,3.6982,3.7183,3.7193,3.7204,3.7271,3.7292,3.731,0,0,0,0,0,0,3.6444,3.6497,3.648,3.661,3.666,3.6709,3.6777,3.6758,3.6823,3.6814,3.6816,3.683,3.695,3.6977,3.6912,3.712,3.7055,3.7071,3.7098,3.7119,3.7135,3.7126,3.6852,0,0,0,0,0,3.6473,3.6548,3.659,3.6701,3.6727,3.6748,3.6791,3.6789,3.6841,3.6862,3.6895,3.6948,3.7023,3.7072,3.7143,3.7281,3.7294,3.7344,3.736,3.7373,3.7387,3.7463,3.7486,3.7244,3.7244,3.7244,0,0,3.6534,3.6572,3.662,3.6715,3.6753,3.6832,3.6766,3.6852,3.6911,3.6875,3.6987,3.7013,3.7072,3.72,3.7258,3.7226,3.7457,3.7387,3.7397,3.7404,3.7476,3.7499,3.7519,3.7251,3.725,3.7249,0,0,3.6686,3.6722,3.6818,3.6857,3.6915,3.6929,3.6952,3.7005,3.7021,3.7132,3.7107,3.7177,3.7306,3.7349,3.7388,3.7556,3.7534,3.7579,3.7664,3.7738,3.7757,3.7774,3.7834,3.7856,3.7592,3.7593,3.7593,0,3.6755,3.6871,3.687,3.6958,3.7001,3.6971,3.7069,3.7108,3.7187,3.7218,3.7181,3.7342,3.7379,3.7517,3.7558,3.759,3.7617,3.7572,3.7754,3.7771,3.7787,3.7844,3.7867,3.7598,3.7597,3.7597,3.7596,0,3.6954,3.7035,3.7106,3.7181,3.7232,3.7325,3.7339,3.7391,3.7384,3.7401,3.7515,3.7559,3.7638,3.7671,3.7665,3.7808,3.7787,3.7752,3.7687,3.7815,3.7869,3.7891,3.7605,3.7603,3.7602,3.76,0,0,3.715,3.7223,3.7249,3.7283,3.7345,3.7408,3.75,3.7576,3.7621,3.7676,3.7754,3.7863,3.7831,3.7876,3.7875,3.7939,3.807,3.7897,3.7898,3.7928,3.8231,3.8257,3.8283,3.8055,3.806,3.8063,3.8226,0,3.7307,3.7466,3.7467,3.7615,3.769,3.7663,3.7742,3.779,3.7808,3.7876,3.7897,3.7975,3.7926,3.7953,3.8015,3.8041,3.8131,3.8029,3.8129,3.8132,3.8116,3.8311,3.8339,3.8491,3.8247,3.8251,3.8253,0,3.7511,3.7572,3.7726,3.7777,3.7809,3.788,3.7951,3.8015,3.8068,3.8077,3.8126,3.8116,3.821,3.8141,3.8272,3.8203,3.8244,3.8262,3.8268,3.8278,3.8201,3.8327,3.8539,3.8562,3.8287,3.8284,3.8282,0,3.764,3.776,3.7868,3.7898,3.796,3.8011,3.8039,3.8088,3.8134,3.8195,3.8225,3.8298,3.8338,3.8395,3.8404,3.8353,3.8536,3.8468,3.8547,3.8547,3.8587,3.8585,3.881,3.8613,3.8612,3.8612,3.8611,0,3.7815,3.7911,3.7927,3.7993,3.81,3.8101,3.8207,3.8231,3.8275,3.8346,3.8327,3.8395,3.8403,3.8473,3.8481,3.8589,3.8607,3.8618,3.8619,3.862,3.8619,3.8648,3.8638,3.8618,3.8617,3.8615,3.8614,0,3.7978,3.7991,3.8107,3.8156,3.817,3.8247,3.8289,3.8353,3.8369,3.846,3.8481,3.8508,3.8589,3.8604,3.8701,3.8706,3.8835,3.8825,3.8817,3.8816,3.8894,3.8887,3.9147,3.9181,3.896,3.8963,3.8964,0,3.8089,3.8162,3.8218,3.8263,3.8294,3.8368,3.8415,3.8418,3.8468,3.8533,3.859,3.8669,3.8733,3.8865,3.8894,3.8968,3.896,3.9046,3.8972,3.897,3.8963,3.8958,3.8966,3.9061,3.9063,3.9065,3.9067,0,3.8286,3.8289,3.8356,3.8425,3.8481,3.8536,3.8588,3.8627,3.8638,3.8695,3.8777,3.8827,3.8925,3.9004,3.9078,3.9108,3.909,3.909,3.9112,3.9114,3.9107,3.9113,3.8857,3.9084,3.9082,3.9081,3.908,3.9079,3.8427,3.849,3.8539,3.8614,3.8654,3.8703,3.8765,3.8789,3.8857,3.8937,3.8935,3.9026,3.9077,3.9174,3.9209,3.9281,3.9254,3.9286,3.9295,3.9303,3.9311,3.9094,3.9295,3.9294,3.9294,3.9293,3.9293,0,3.8623,3.8653,3.8722,3.8795,3.8855,3.883,3.8887,3.8938,3.9018,3.9067,3.913,3.9225,3.9302,3.9336,3.9412,3.9463,3.9457,3.9483,3.948,3.9487,3.933,3.9304,3.9487,3.9487,3.9487,3.9487,3.9487,3.9487,3.8733,3.8839,3.8848,3.8973,3.9003,3.909,3.9125,3.9171,3.9209,3.9316,3.9379,3.94,3.9444,3.9523,3.9593,3.9601,3.963,3.966,3.9665,3.9518,3.9498,3.948,3.9454,3.9667,3.9667,3.9816,3.9817,3.9818]},{"header":{"parameterUnit":"m.s-1","parameterCategory":1,"la1":30.2991,"la2":30.254,"lo1":-89.0895,"lo2":-89.0444,"dy":0.0017,"dx":0.0017,"nx":28,"ny":28,"refTime":"2024-08-01T21:00:00:Z","depth":0,"parameterNumber":3,"parameterNumberName":"V-component_of_WINDS"},"data":[0,0,0,0,0,0,0,0,0,0,0,0,0,0,0,0,0,0,0,0,0,0,0,0,0,0,0,0,0,0,0,0,0,0,0,0,0,0,0,0,0,0,0,0,0,0,0,0,0,0,0,0,0,0,0,0,0,0,-0.9112,-0.9112,0,-0.9123,-0.9123,-0.9124,-0.9125,-0.9124,-0.9124,-0.9124,-0.9136,-0.9136,-0.9136,0,0,0,0,0,0,0,0,0,0,0,0,0,-0.909,-0.909,-0.9112,-0.9112,-0.9112,-0.9123,-0.9123,-0.9124,-0.9125,-0.9124,-0.9124,-0.9124,-0.9135,-0.9136,-0.9136,0,0,0,0,0,0,0,0,0,0,0,0,0,-0.91,-0.909,-0.9112,-0.9114,-0.9114,-0.9123,-0.9123,-0.9124,-0.9125,-0.9124,-0.9124,-0.9124,-0.9135,-0.9136,-0.9137,-0.9144,0,0,-0.9138,-0.9139,0,0,0,0,0,0,0,0,-0.91,-0.9101,-0.9113,-0.9114,-0.9114,-0.9122,-0.912,-0.913,-0.9125,-0.9121,-0.9124,-0.9124,-0.9131,-0.9132,-0.9135,-0.9145,-0.9145,-0.9138,-0.9139,-0.9139,-0.9139,0,0,0,0,0,0,0,-0.9099,-0.9101,-0.9116,-0.9114,-0.9114,-0.9114,-0.9115,-0.9122,-0.9127,-0.9121,-0.9121,-0.9122,-0.9131,-0.9134,-0.9135,-0.9145,-0.9138,-0.9139,-0.9139,-0.914,-0.9162,-0.9162,0,0,0,0,0,0,-0.9098,-0.91,-0.9116,-0.9117,-0.9106,-0.9115,-0.9116,-0.912,-0.9127,-0.9128,-0.9123,-0.9122,-0.9133,-0.9134,-0.9135,-0.9145,-0.9139,-0.914,-0.914,-0.9162,-0.9162,-0.9162,0,0,0,0,0,0,-0.9097,-0.9099,-0.9115,-0.9108,-0.911,-0.9115,-0.9119,-0.912,-0.9123,-0.9128,-0.9129,-0.9125,-0.9133,-0.9135,-0.9142,-0.9145,-0.914,-0.9141,-0.9161,-0.9162,-0.9162,-0.9163,0,0,0,0,0,0,-0.9097,-0.9099,-0.9102,-0.9108,-0.9111,-0.9122,-0.912,-0.9121,-0.9124,-0.9124,-0.913,-0.9131,-0.9133,-0.9141,-0.9143,-0.9146,-0.9141,-0.9161,-0.9162,-0.9162,-0.9163,-0.9163,-0.9164,0,0,0,0,0,-0.9096,-0.9102,-0.9102,-0.9104,-0.9115,-0.9122,-0.9123,-0.9126,-0.9124,-0.9127,-0.9131,-0.9131,-0.9145,-0.9142,-0.9144,-0.9147,-0.9161,-0.9161,-0.9162,-0.9163,-0.9163,-0.9164,0,0,0,0,0,0,-0.9095,-0.9103,-0.9103,-0.9111,-0.9116,-0.9122,-0.9126,-0.9127,-0.9132,-0.9131,-0.9134,-0.9136,-0.9143,-0.9146,-0.9142,-0.9155,-0.9153,-0.9153,-0.9152,-0.9153,-0.9154,-0.9153,-0.9142,0,0,0,0,0,-0.9096,-0.9102,-0.9108,-0.9114,-0.9117,-0.9121,-0.9124,-0.9126,-0.9131,-0.9133,-0.9137,-0.9141,-0.9147,-0.915,-0.9156,-0.9163,-0.9165,-0.9167,-0.9167,-0.9168,-0.9168,-0.9173,-0.9174,-0.9164,-0.9164,-0.9164,0,0,-0.9098,-0.9102,-0.9106,-0.9114,-0.9118,-0.9124,-0.9122,-0.9128,-0.9132,-0.9134,-0.9141,-0.9144,-0.9149,-0.9157,-0.9161,-0.916,-0.9171,-0.9168,-0.9169,-0.9169,-0.9173,-0.9174,-0.9175,-0.9164,-0.9164,-0.9164,0,0,-0.9103,-0.9108,-0.9113,-0.9118,-0.9124,-0.9127,-0.9128,-0.9134,-0.9136,-0.9144,-0.9145,-0.915,-0.9159,-0.9163,-0.9166,-0.9174,-0.9174,-0.9176,-0.9178,-0.9183,-0.9183,-0.9184,-0.9187,-0.9188,-0.9176,-0.9176,-0.9176,0,-0.9105,-0.9113,-0.9116,-0.9122,-0.9126,-0.9128,-0.9134,-0.9137,-0.9145,-0.9147,-0.9146,-0.9158,-0.9162,-0.917,-0.9172,-0.9175,-0.9177,-0.9175,-0.9183,-0.9184,-0.9184,-0.9187,-0.9188,-0.9176,-0.9176,-0.9176,-0.9176,0,-0.9114,-0.912,-0.9124,-0.9131,-0.9136,-0.9142,-0.9146,-0.9149,-0.9151,-0.9154,-0.9161,-0.9166,-0.9173,-0.9175,-0.9176,-0.9184,-0.9183,-0.9182,-0.918,-0.9185,-0.9188,-0.9189,-0.9176,-0.9176,-0.9176,-0.9176,0,0,-0.9119,-0.9129,-0.913,-0.9133,-0.9141,-0.9145,-0.9151,-0.9158,-0.9161,-0.9166,-0.9171,-0.9179,-0.9179,-0.9183,-0.9185,-0.9188,-0.9194,-0.9187,-0.9188,-0.9188,-0.9202,-0.9202,-0.9204,-0.9195,-0.9195,-0.9195,-0.9202,0,-0.9126,-0.9136,-0.914,-0.9149,-0.9154,-0.9156,-0.9161,-0.9166,-0.9169,-0.9174,-0.9178,-0.9184,-0.9183,-0.9185,-0.9189,-0.9193,-0.9197,-0.9192,-0.9199,-0.9199,-0.9197,-0.9205,-0.9205,-0.9211,-0.9203,-0.9203,-0.9203,0,-0.9134,-0.914,-0.9149,-0.9156,-0.9158,-0.9163,-0.9169,-0.9174,-0.918,-0.9182,-0.9186,-0.9188,-0.9194,-0.9192,-0.9201,-0.9198,-0.9201,-0.9203,-0.9203,-0.9204,-0.9201,-0.9205,-0.9213,-0.9214,-0.9205,-0.9205,-0.9205,0,-0.9137,-0.9147,-0.9154,-0.9157,-0.9165,-0.9168,-0.9171,-0.9177,-0.918,-0.9186,-0.9188,-0.9195,-0.9198,-0.9203,-0.9206,-0.9204,-0.9214,-0.9213,-0.9216,-0.9216,-0.9218,-0.9217,-0.9226,-0.922,-0.922,-0.922,-0.922,0,-0.9143,-0.9149,-0.9155,-0.9159,-0.9166,-0.917,-0.9176,-0.9179,-0.9184,-0.9189,-0.9192,-0.9196,-0.9201,-0.9206,-0.9209,-0.9215,-0.9217,-0.9218,-0.9219,-0.9218,-0.9218,-0.922,-0.9219,-0.9221,-0.922,-0.922,-0.922,0,-0.9147,-0.9151,-0.9159,-0.9166,-0.9168,-0.9172,-0.9178,-0.9182,-0.9186,-0.9192,-0.9194,-0.9199,-0.9205,-0.9209,-0.9217,-0.9219,-0.9226,-0.9227,-0.9225,-0.9225,-0.9228,-0.9227,-0.9238,-0.9239,-0.9233,-0.9233,-0.9233,0,-0.915,-0.9155,-0.9162,-0.9166,-0.9169,-0.9175,-0.9179,-0.9183,-0.9187,-0.9194,-0.9198,-0.9204,-0.9209,-0.9219,-0.9224,-0.923,-0.9231,-0.9234,-0.9231,-0.923,-0.923,-0.923,-0.923,-0.9234,-0.9234,-0.9234,-0.9234,0,-0.9156,-0.9158,-0.9164,-0.917,-0.9175,-0.918,-0.9186,-0.9188,-0.9193,-0.9198,-0.9204,-0.9208,-0.9217,-0.9223,-0.923,-0.9233,-0.9234,-0.9235,-0.9236,-0.9235,-0.9233,-0.9234,-0.9225,-0.9235,-0.9235,-0.9234,-0.9234,-0.9234,-0.916,-0.9164,-0.917,-0.9176,-0.9181,-0.9186,-0.919,-0.9194,-0.92,-0.9207,-0.9209,-0.9216,-0.9222,-0.9231,-0.9234,-0.924,-0.9239,-0.9241,-0.9241,-0.9241,-0.9241,-0.9233,-0.9241,-0.9241,-0.9241,-0.9241,-0.9241,0,-0.9166,-0.917,-0.9175,-0.9183,-0.9188,-0.9189,-0.9195,-0.9199,-0.9205,-0.921,-0.9216,-0.9223,-0.923,-0.9235,-0.9241,-0.9245,-0.9245,-0.9246,-0.9246,-0.9246,-0.9241,-0.924,-0.9245,-0.9245,-0.9245,-0.9245,-0.9245,-0.9245,-0.9169,-0.9176,-0.9179,-0.9188,-0.9192,-0.9199,-0.9202,-0.9207,-0.9211,-0.922,-0.9225,-0.9229,-0.9234,-0.9241,-0.9247,-0.9248,-0.925,-0.9251,-0.9252,-0.9247,-0.9247,-0.9246,-0.9245,-0.9251,-0.9251,-0.9257,-0.9257,-0.9257]}]]